This is the latest recevied weather packets stored in our database for station/object IU1DOF-3. If no packets are shown the sender has not sent any weather packets the latest 1 day(s).
| Time | Temp. | Humidity | Pressure | Rain* | Wind** | Luminosity | Snow |
|---|---|---|---|---|---|---|---|
| 1777975228 | 11.67° C | 87% | 1011.7 hPa | 0 mm | 1.34 m/s, 298° | - | - |
| 1777974604 | 10.56° C | 86% | 1011.7 hPa | 0 mm | 0.45 m/s, 297° | - | - |
| 1777973995 | 11.11° C | 86% | 1011.9 hPa | 0 mm | 0.45 m/s, 298° | - | - |
| 1777973382 | 11.11° C | 84% | 1011.8 hPa | 1.78 mm | 0 m/s | - | - |
| 1777972764 | 10.56° C | 84% | 1011.9 hPa | 0 mm | 0 m/s | - | - |
| 1777972140 | 10.56° C | 85% | 1011.8 hPa | 0 mm | 0.45 m/s, 298° | - | - |
| 1777971520 | 10.56° C | 84% | 1011.5 hPa | 0 mm | 0.45 m/s, 298° | - | - |
| 1777970908 | 10° C | 88% | 1011.6 hPa | 0 mm | 0 m/s | - | - |
| 1777970284 | 10° C | 90% | 1011.4 hPa | 0 mm | 0 m/s | - | - |
| 1777969660 | 9.44° C | 93% | 1011.7 hPa | 0 mm | 0 m/s | - | - |
| 1777969036 | 9.44° C | 97% | 1011.4 hPa | 0 mm | 0 m/s | - | - |
| 1777968412 | 8.89° C | 98% | 1011.5 hPa | 0 mm | 0 m/s | - | - |
| 1777967800 | 9.44° C | 99% | 1011.4 hPa | 0 mm | 0 m/s | - | - |
| 1777967182 | 8.33° C | 99% | 1011.6 hPa | 0 mm | 0.45 m/s, 300° | - | - |
| 1777966556 | 8.33° C | 99% | 1011.7 hPa | 0 mm | 0 m/s | - | - |
| 1777965940 | 7.78° C | 99% | 1011.6 hPa | 0 mm | 0 m/s | - | - |
| 1777965324 | 7.22° C | 99% | 1011.7 hPa | 0 mm | 0 m/s | - | - |
| 1777964701 | 7.78° C | 99% | 1011.9 hPa | 0 mm | 0 m/s | - | - |
| 1777964080 | 7.22° C | 99% | 1011.6 hPa | 0 mm | 0 m/s | - | - |
| 1777963468 | 6.67° C | 99% | 1011.9 hPa | 0 mm | 0 m/s | - | - |
| 1777962845 | 7.22° C | 99% | 1011.7 hPa | 0 mm | 0 m/s | - | - |
| 1777962221 | 6.67° C | 99% | 1011.7 hPa | 0 mm | 0 m/s | - | - |
| 1777961595 | 6.67° C | 99% | 1011.7 hPa | 0 mm | 0 m/s | - | - |
| 1777960973 | 6.67° C | 99% | 1011.8 hPa | 0 mm | 0 m/s | - | - |
| 1777960361 | 7.22° C | 99% | 1011.5 hPa | 0 mm | 0 m/s | - | - |
* Rain latest hour (hover to see other rain measurements)
** Current wind speed in m/s (hover to see current wind gust speed)